Meteo Giornale » Osservazioni meteo Italia » Falconara

ore: 01:50 - Osservazioni Meteo Falconara
Lat. 43° 37' N Lon. 13° 22' E Alt. 12 metri s.l.m.

sereno Europe/Rome

19 °C

Sereno

Temp. 24 Ore

15 °C

27 °C

Nord

3.7 Km/h

Dew point 13 °C

Umidità 68 %

Visibilità  10 Km

Il sole sorge alle ore 06:20

Il sole tramonta alle ore 19:56

Data e Ora Cielo e Fenomeni T °C DP °C Um. % Pres. hPa Vis. km Vento km/h
Oggi h: 01:50 sereno Sereno 19 13 68 1017 10 N 3.7
Oggi h: 00:50 sereno Sereno 19 14 72 1017 10 N 5.5
Ieri h: 23:50 sereno Sereno 20 14 68 1017 10 N 3.7
Ieri h: 22:50 sereno Sereno 21 14 64 1017 10 N 1.8
Ieri h: 21:50 sereno Sereno 21 13 60 1017 10 N 5.5
Ieri h: 20:50 sereno Sereno 22 14 60 1017 10 N 3.7
Ieri h: 19:50 sereno Sereno 26 13 44 1016 10 N 5.5
Ieri h: 18:50 sereno Sereno 26 14 47 1016 10 E/NE 14.8
Ieri h: 17:50 sereno Sereno 26 14 47 1016 10 NE 18.5
Ieri h: 16:50 sereno Sereno 26 14 47 1016 10 NE 22.2
Ieri h: 15:50 sereno Sereno 26 14 47 1016 10 E/NE 20.3
Ieri h: 14:50 sereno Sereno 27 14 44 1017 10 E/NE 16.7
Ieri h: 13:50 sereno Sereno 26 13 44 1017 10 NE 18.5
Ieri h: 12:50 sereno Sereno 26 14 47 1018 10 N/NE 18.5
Ieri h: 11:50 sereno Sereno 25 13 47 1018 10 N/NE 14.8
Ieri h: 10:50 sereno Sereno 25 12 44 1018 10 N/NE 11.1
Ieri h: 09:50 sereno Sereno 24 10 41 1018 10 N 5.5
Ieri h: 08:50 sereno Sereno 21 8 43 1017 10 S 7.4
Ieri h: 07:50 sereno Sereno 18 8 51 1017 10 N 5.5
Ieri h: 06:50 sereno Sereno 15 8 62 1017 10 N 5.5
Ieri h: 05:50 sereno Sereno 15 8 62 1017 10 N 5.5
Ieri h: 04:50 sereno Sereno 16 8 58 1016 10 S 7.4
Ieri h: 03:50 sereno Sereno 15 8 62 1017 10 N 5.5